    C/2004 H6 (SWAN)                                                      

Epoch 2004 Apr. 25.0 TT = JDT 2453120.5  

T 2004 May 12.68529 TT                                  Nakano

q   0.7762240            (2000.0)            P               Q

z  -0.0006955      Peri.  269.04280     +0.19367161     +0.73759949

 +/-0.0000326      Node   317.24482     +0.59374136     -0.61301517

e   1.0005399      Incl.  107.66178     -0.78100096     -0.28312434

From 87 observations 2004 May 21-July 31, mean residual 0".74.

   (1/a)org.= -0.000189, (1/a)fut.= -0.000165 (+/-0.000033), Q= 5.



         **** Don't distribute anyone except personal use only ****

                (C) Copyright 2004 OAA/ComputingSection

write mail from CFAD0::NAKANO on 2004-08-04 23:10:27(JST).

---------------------------------------------------------------------------

    Syuichi Nakano, P. O. Box No. 32, Sumoto, Hyogo-Ken, 656-8691 Japan

     An Associate of the Minor Planet Center   snakano@cfa.harvard.edu

         http://www.oaa.gr.jp/   08-04-2004, 23:27:51 +09:00 (JST)

               OS/2 and Digital UNIX in Operating Systems

             **** Please reply ONLY to nakano@oaa.gr.jp ****







◎C/2004 H6の軌道と予報位置です



  那賀川の堀寿夫氏と前野拓氏から7月14日と7月16日の観測の報告があり

ました.彼らの CCD全光度は,16日に12.8等でした.彗星は,7月中旬に,

9等級で眼視観測されています.観測期間が短く定かではありませんが,彗

星の過去・未来軌道とも,かなり大きい−(マイナス)を示します.軌道の

精度が向上すれば,より小さく,あるいは,+(プラス)に転じるのでしょ

うか.



    C/2004 H6 (SWAN)                                                      

Epoch 2004 Apr. 25.0 TT = JDT 2453120.5  

T 2004 May  12.68522 TT                                 Nakano

q   0.7762273            (2000.0)            P               Q

z  -0.0006928      Peri.  269.04299     +0.19367043     +0.73760058

 +/-0.0000453      Node   317.24497     +0.59373739     -0.61301539

e   1.0005378      Incl.  107.66151     -0.78100428     -0.28312103

From 44 observations 2004 May 21-July 17, mean residual 0".71.

   (1/a)org.= -0.000187, (1/a)fut.= -0.000162 (+/-0.000045), Q= 5.

Residuals in seconds of arc 

2004/                     040615 I05  0.3+  0.5+    040701 349  0.2-  0.2+  

040516 D82 (0.7-  4.6-)   040615 I05  0.3+  0.2+    040702 349  0.4-  0.5-  

040521 247  0.5-  0.6+    040615 I05  0.0   0.0     040702 349  0.5-  0.6-  

040521 247  0.2-  1.0+    040615 I05  0.0   0.7+    040702 349  0.4-  0.6-  

040521 247 (2.7-  1.1+)   040621 D86 (3.0-  3.0-)   040710 213  0.2+  0.2-  

040521 247 (4.7+  0.8+)   040621 D86  1.4+  1.2-    040710 213 (2.4+  0.1+) 

040525 D87  0.3+  0.5-    040623 I05  0.1-  0.8+    040710 213  0.2-  0.2-  

040525 D87  1.4-  1.3+    040623 I05  0.0   0.5+    040714 D74  0.9+  0.9+  

040525 D87  1.1+  1.5+    040624 I05  0.4-  0.0     040714 D74  0.4+  0.2+  

040525 D87  1.1+  1.8+    040624 I05  0.3+  0.6+    040716 704 (1.1+  8.6-) 

040527 E13  0.2-  1.8-    040624 I05  0.1+  0.2+    040716 704 (6.2-  2.6-) 

040527 E13  0.7-  1.9-    040626 D86  0.1+  0.0     040716 704 (3.4-  3.2-) 

040527 E13  1.5-  2.0-    040626 D86 (2.2+  0.3-)   040716 704 (4.1-  1.5-) 

040607 D87  0.5+  0.8-    040626 D86 (3.2-  3.3-)   040716 704 (3.5-  0.6-) 

040607 D87  1.1+  0.6-    040630 360  0.0   0.4+    040716 D74  0.4+  0.1-  

040607 D87  0.7+  0.0     040630 360  0.0   0.5+    040716 D74  0.8+  0.2+  

040607 D87  0.2-  0.9-    040630 360  0.2-  0.5+    040717 215  1.0-  0.1-  

040607 D87  0.1-  0.5-    040701 349  0.5-  0.2+    040717 215  0.5-  0.6-  

040615 I05  0.3+  0.3+    040701 349  0.4-  0.3+    040717 215  0.3-  0.5-  

 

Date/        TT  R.A.(2000) Decl.     Delta   r     Daily motion  Mag.  Moon Age

              h    h  m       。  ,                      ,  / PA 。  m1      。

2004 July 20 18  23 48.47  -11 18.0   0.631  1.471   137.6 / 275   8.2  162  .10

          21 18  23 39.15  -11 05.2   0.625  1.485   140.7 / 275   8.2  175  .17

          22 18  23 29.65  -10 51.3   0.621  1.499   143.2 / 276   8.2  168  .25

          23 18  23 19.99  -10 36.3   0.618  1.513   145.2 / 276   8.3  153  .35

          24 18  23 10.20  -10 20.3   0.615  1.527   146.7 / 276   8.3  137  .46

          25 18  23 00.33  -10 03.3   0.614  1.540   147.5 / 277   8.3  122  .57

          26 18  22 50.43  -09 45.4   0.615  1.554   147.7 / 277   8.4  106  .68

          27 18  22 40.52  -09 26.8   0.616  1.568   147.2 / 277   8.4   89  .78

          28 18  22 30.67  -09 07.5   0.619  1.582   146.1 / 278   8.4   72  .87

          29 18  22 20.90  -08 47.6   0.623  1.596   144.3 / 278   8.5   55  .94

          30 18  22 11.26  -08 27.3   0.628  1.609   142.0 / 278   8.6   39  .98

          31 18  22 01.80  -08 06.7   0.635  1.623   139.2 / 278   8.6   23 1.00

     Aug.  1 18  21 52.53  -07 46.0   0.643  1.637   135.9 / 279   8.7   10  .98

           2 18  21 43.50  -07 25.3   0.652  1.651   132.2 / 279   8.7   16  .94

           3 18  21 34.72  -07 04.7   0.662  1.665   128.1 / 279   8.8   30  .88

           4 18  21 26.22  -06 44.4   0.673  1.678   123.8 / 279   8.9   45  .80

           5 18  21 18.02  -06 24.5   0.685  1.692   119.3 / 279   9.0   59  .71

           6 18  21 10.13  -06 05.1   0.699  1.706   114.7 / 279   9.0   73  .61

           7 18  21 02.54  -05 46.2   0.713  1.720   109.9 / 279   9.1   87  .52

           8 18  20 55.28  -05 27.9   0.728  1.733   105.2 / 280   9.2  100  .42

           9 18  20 48.34  -05 10.3   0.744  1.747   100.4 / 280   9.3  113  .33

          10 18  20 41.72  -04 53.4   0.761  1.761    95.7 / 280   9.4  126  .24

          11 18  20 35.40  -04 37.2   0.779  1.774    91.1 / 280   9.4  138  .17

          12 18  20 29.40  -04 21.7   0.798  1.788    86.6 / 280   9.5  148  .10

          13 18  20 23.69  -04 07.0   0.817  1.802    82.2 / 280   9.6  157  .05

          14 18  20 18.28  -03 53.0   0.837  1.816    78.0 / 280   9.7  160  .02

          15 18  20 13.14  -03 39.7   0.858  1.829    73.9 / 280   9.8  155  .00

          16 18  20 08.28  -03 27.1   0.879  1.843    70.0 / 280   9.9  145  .01

          17 18  20 03.67  -03 15.2   0.901  1.856    66.2 / 280  10.0  133  .03

          18 18  19 59.32  -03 04.0   0.923  1.870    62.6 / 280  10.0  121  .07

          19 18  19 55.20  -02 53.4   0.946  1.884    59.2 / 280  10.1  108  .14

          20 18  19 51.30  -02 43.4   0.969  1.897    55.9 / 280  10.2   95  .22

          21 18  19 47.62  -02 33.9   0.993  1.911    52.8 / 280  10.3   82  .32

          22 18  19 44.15  -02 25.1   1.017  1.924    49.9 / 280  10.4   68  .42

          23 18  19 40.87  -02 16.7   1.041  1.938    47.1 / 280  10.5   55  .54

          24 18  19 37.77  -02 08.8   1.066  1.951    44.4 / 280  10.5   43  .65

          25 18  19 34.85  -02 01.4   1.091  1.965    41.9 / 280  10.6   32  .76

          26 18  19 32.10  -01 54.4   1.117  1.978    39.5 / 280  10.7   25  .85

          27 18  19 29.50  -01 47.8   1.143  1.992    37.2 / 280  10.8   26  .92

          28 18  19 27.05  -01 41.6   1.169  2.005    35.1 / 280  10.9   34  .97

          29 18  19 24.75  -01 35.8   1.195  2.019    33.0 / 280  10.9   46 1.00

          30 18  19 22.58  -01 30.3   1.222  2.032    31.1 / 280  11.0   58  .99

          31 18  19 20.53  -01 25.2   1.248  2.046    29.2 / 280  11.1   71  .96

     Sept. 1 18  19 18.61  -01 20.3   1.275  2.059    27.5 / 280  11.2   84  .91

NAKANO

         **** Don't distribute anyone except personal use only ****

                (C) Copyright 2004 OAA/ComputingSection

write mail from CFAD0::NAKANO on 2004-07-20 02:13:23(JST).

 

    C/2004 H6 (SWAN)                                                      

T 2004 May 12.67741 TT                                  Nakano

q   0.7760166            (2000.0)            P               Q

                   Peri.  269.02490     +0.19336060     +0.73759031

                   Node   317.23906     +0.59383117     -0.61289911

e   1.0            Incl.  107.65256     -0.78100974     -0.28339940

From 33 observations 2004 May 21-July 1.



NAKANO

         **** Don't distribute anyone except personal use only ****

                (C) Copyright 2004 OAA/ComputingSection

write mail from CFAD0::NAKANO on 2004-07-03 22:20:30(JST).

 

◎C/2004 H6の軌道と予報位置です



  久万の中村彰正氏は6月30日,上尾の門田健一氏は7月1日(今夜)に,

南から昇ってきたこの彗星の観測に成功しました.門田氏による CCD全光度

は10.2等でした.彗星の観測条件は,これから良くなり,7月23日以後は,

天文薄明開始前に南中します.



    C/2004 H6 (SWAN)                                                      

T 2004 May 12.67786 TT                                  Nakano

q   0.7760249            (2000.0)            P               Q

                   Peri.  269.02603     +0.19338177     +0.73758211

                   Node   317.23868     +0.59382200     -0.61291523

e   1.0            Incl.  107.65301     -0.78101148     -0.28338587

From 32 observations 2004 May 21-July 1.



 18h TT  R.A.(2000) Decl.    Delta   r      Mot./PA   Elong. Mag.  At Twilight

           h  m       o  ,                    ,     o    o    m1    h o    A o

July  1  01 54.37  -13 03.9  0.871  1.213   64.0/272   79.5   8.0  +13.0  296.7

      2  01 49.99  -13 01.8  0.855  1.226   66.9/272   81.3   8.0  +14.6  298.2

      3  01 45.41  -12 59.5  0.839  1.239   70.0/272   83.2   8.1  +16.3  299.7

      4  01 40.63  -12 57.1  0.823  1.253   73.2/272   85.1   8.1  +17.9  301.4

      5  01 35.63  -12 54.5  0.808  1.266   76.6/272   87.1   8.1  +19.6  303.1

      6  01 30.40  -12 51.6  0.792  1.280   80.1/272   89.2   8.1  +21.3  304.9

      7  01 24.92  -12 48.4  0.777  1.293   83.8/272   91.3   8.1  +23.1  306.8

      8  01 19.20  -12 45.0  0.762  1.307   87.7/272   93.4   8.1  +24.8  308.9

      9  01 13.21  -12 41.1  0.748  1.320   91.8/272   95.6   8.1  +26.5  311.1

     10  01 06.94  -12 36.9  0.734  1.334   95.9/273   97.9   8.1  +28.2  313.4

     11  01 00.40  -12 32.1  0.721  1.348  100.2/273  100.3   8.1  +29.9  315.9

     12  00 53.57  -12 26.9  0.708  1.361  104.6/273  102.8   8.1  +31.6  318.6

     13  00 46.44  -12 21.0  0.696  1.375  109.0/273  105.3   8.1  +33.3  321.5

